When you browse on this site, cookies collect data to enhance your experience and personalize the content and advertising you see.
Visit our Privacy Policy to learn more. By continuing to use the site, you agree to this use of cookies and data.
  • In United Kingdom
  • List of Countries
  • For 7 days
  • Water Temperature
  • Weather Map
  • Weather Widgets
  • user-avatar
    Login

    Hourly Weather Shumen

    Today, 23 October, Wednesday

    Time Temperature Precipitation Wind Pressure Humidity
    00:00 +11°C° 0 mm 0 mps 736 mmHg 85%
    01:00 +11°C° 0 mm 0 mps 736 mmHg 85%
    02:00 +11°C° 0 mm 0 mps 736 mmHg 86%
    03:00 +11°C° 0 mm 0 mps 736 mmHg 86%
    04:00 +10°C° 0 mm 0 mps 736 mmHg 85%
    05:00 +10°C° 0 mm 0 mps 736 mmHg 84%
    06:00 +11°C° 0 mm 0 mps 736 mmHg 80%
    07:00 +12°C° 0 mm 0 mps 736 mmHg 76%
    08:00 +13°C° 0 mm 0 mps 736 mmHg 72%
    09:00 +15°C° 0 mm 0 mps 736 mmHg 61%
    10:00 +20°C° 0 mm 1 mps 736 mmHg 51%
    11:00 +22°C° 0 mm 1 mps 737 mmHg 40%
    12:00 +23°C° 0 mm 1 mps 736 mmHg 37%
    13:00 +23°C° 0 mm 1 mps 736 mmHg 34%
    14:00 +24°C° 0 mm 2 mps 735 mmHg 32%
    15:00 +23°C° 0 mm 2 mps 735 mmHg 36%
    16:00 +20°C° 0 mm 2 mps 735 mmHg 40%
    17:00 +20°C° 0 mm 1 mps 734 mmHg 44%
    18:00 +19°C° 0 mm 1 mps 735 mmHg 49%
    19:00 +16°C° 0 mm 1 mps 735 mmHg 54%
    20:00 +15°C° 0 mm 1 mps 735 mmHg 59%
    21:00 +14°C° 0 mm 1 mps 735 mmHg 64%
    22:00 +14°C° 0 mm 1 mps 735 mmHg 68%
    23:00 +13°C° 0 mm 1 mps 734 mmHg 72%

    Tomorrow, 24 October, Thursday

    Time Temperature Precipitation Wind Pressure Humidity
    00:00 +13°C° 0 mm 1 mps 734 mmHg 74%
    01:00 +12°C° 0 mm 1 mps 734 mmHg 76%
    02:00 +12°C° 0 mm 1 mps 734 mmHg 78%
    03:00 +12°C° 0 mm 1 mps 734 mmHg 77%
    04:00 +12°C° 0 mm 1 mps 734 mmHg 75%
    05:00 +10°C° 0 mm 0 mps 733 mmHg 74%
    06:00 +11°C° 0 mm 0 mps 734 mmHg 70%
    07:00 +13°C° 0 mm 1 mps 734 mmHg 66%
    08:00 +14°C° 0 mm 1 mps 734 mmHg 62%
    09:00 +16°C° 0 mm 1 mps 734 mmHg 53%
    10:00 +19°C° 0 mm 2 mps 734 mmHg 43%
    11:00 +21°C° 0 mm 2 mps 734 mmHg 34%
    12:00 +23°C° 0 mm 2 mps 734 mmHg 31%
    13:00 +24°C° 0 mm 3 mps 734 mmHg 29%
    14:00 +24°C° 0 mm 3 mps 734 mmHg 27%
    15:00 +22°C° 0 mm 3 mps 733 mmHg 33%
    16:00 +20°C° 0 mm 2 mps 733 mmHg 39%
    17:00 +18°C° 0 mm 2 mps 732 mmHg 44%
    18:00 +17°C° 0 mm 2 mps 732 mmHg 51%
    19:00 +16°C° 0 mm 2 mps 732 mmHg 58%
    20:00 +14°C° 0 mm 2 mps 732 mmHg 64%
    21:00 +14°C° 0 mm 2 mps 732 mmHg 67%
    22:00 +13°C° 0 mm 2 mps 732 mmHg 70%
    23:00 +13°C° 0 mm 2 mps 732 mmHg 73%

    Day after tomorrow, 25 October, Friday

    Time Temperature Precipitation Wind Pressure Humidity
    00:00 +12°C° 0 mm 1 mps 732 mmHg 73%
    01:00 +12°C° 0 mm 1 mps 732 mmHg 74%
    02:00 +12°C° 0 mm 1 mps 732 mmHg 74%
    03:00 +11°C° 0 mm 1 mps 732 mmHg 73%
    04:00 +11°C° 0 mm 1 mps 732 mmHg 72%
    05:00 +11°C° 0 mm 1 mps 731 mmHg 72%
    06:00 +12°C° 0 mm 1 mps 732 mmHg 68%
    07:00 +13°C° 0 mm 1 mps 732 mmHg 64%
    08:00 +13°C° 0 mm 1 mps 732 mmHg 60%
    09:00 +16°C° 0 mm 1 mps 733 mmHg 53%
    10:00 +18°C° 0 mm 2 mps 733 mmHg 45%
    11:00 +20°C° 0 mm 2 mps 733 mmHg 37%
    12:00 +21°C° 0 mm 2 mps 733 mmHg 34%
    13:00 +23°C° 0 mm 2 mps 733 mmHg 32%
    14:00 +24°C° 0 mm 2 mps 733 mmHg 29%
    15:00 +21°C° 0 mm 2 mps 733 mmHg 36%
    16:00 +20°C° 0 mm 2 mps 733 mmHg 42%
    17:00 +18°C° 0 mm 2 mps 732 mmHg 49%
    18:00 +17°C° 0 mm 2 mps 733 mmHg 55%
    19:00 +15°C° 0 mm 1 mps 733 mmHg 62%
    20:00 +14°C° 0 mm 1 mps 733 mmHg 68%
    21:00 +14°C° 0 mm 1 mps 733 mmHg 70%
    22:00 +13°C° 0 mm 1 mps 733 mmHg 71%
    23:00 +12°C° 0 mm 0 mps 734 mmHg 73%

    26 October, Saturday

    Time Temperature Precipitation Wind Pressure Humidity
    00:00 +11°C° 0 mm 0 mps 734 mmHg 73%
    01:00 +11°C° 0 mm 0 mps 734 mmHg 74%
    02:00 +11°C° 0 mm 0 mps 733 mmHg 74%
    03:00 +11°C° 0 mm 0 mps 734 mmHg 74%
    04:00 +10°C° 0 mm 0 mps 734 mmHg 74%
    05:00 +10°C° 0 mm 0 mps 734 mmHg 74%
    06:00 +11°C° 0 mm 0 mps 734 mmHg 70%
    07:00 +12°C° 0 mm 0 mps 735 mmHg 66%
    08:00 +13°C° 0 mm 0 mps 735 mmHg 62%
    09:00 +15°C° 0 mm 0 mps 735 mmHg 53%
    10:00 +17°C° 0 mm 0 mps 736 mmHg 45%
    11:00 +20°C° 0 mm 0 mps 736 mmHg 36%
    12:00 +20°C° 0 mm 0 mps 736 mmHg 33%
    13:00 +23°C° 0 mm 1 mps 735 mmHg 30%
    14:00 +24°C° 0 mm 1 mps 735 mmHg 27%
    15:00 +23°C° 0 mm 1 mps 735 mmHg 30%
    16:00 +21°C° 0 mm 1 mps 734 mmHg 33%
    17:00 +20°C° 0 mm 1 mps 734 mmHg 37%
    18:00 +18°C° 0 mm 1 mps 734 mmHg 40%
    19:00 +16°C° 0 mm 1 mps 734 mmHg 43%
    20:00 +14°C° 0 mm 0 mps 734 mmHg 46%
    21:00 +13°C° 0 mm 0 mps 734 mmHg 49%
    22:00 +13°C° 0 mm 0 mps 734 mmHg 52%
    23:00 +12°C° 0 mm 0 mps 734 mmHg 54%

    27 October, Sunday

    Time Temperature Precipitation Wind Pressure Humidity
    00:00 +12°C° 0 mm 0 mps 734 mmHg 55%
    01:00 +12°C° 0 mm 0 mps 733 mmHg 56%
    02:00 +11°C° 0 mm 0 mps 733 mmHg 57%
    03:00 +11°C° 0 mm 0 mps 733 mmHg 57%
    04:00 +11°C° 0 mm 0 mps 733 mmHg 57%
    05:00 +11°C° 0 mm 0 mps 733 mmHg 57%
    06:00 +11°C° 0 mm 0 mps 733 mmHg 55%
    07:00 +12°C° 0 mm 0 mps 733 mmHg 52%
    08:00 +13°C° 0 mm 0 mps 733 mmHg 50%
    09:00 +15°C° 0 mm 0 mps 733 mmHg 44%
    10:00 +18°C° 0 mm 0 mps 733 mmHg 38%
    11:00 +20°C° 0 mm 0 mps 734 mmHg 32%
    12:00 +23°C° 0 mm 1 mps 733 mmHg 30%
    13:00 +23°C° 0 mm 1 mps 733 mmHg 28%
    14:00 +24°C° 0 mm 1 mps 732 mmHg 27%
    15:00 +22°C° 0 mm 1 mps 732 mmHg 31%
    16:00 +21°C° 0 mm 1 mps 732 mmHg 35%
    17:00 +19°C° 0 mm 1 mps 731 mmHg 39%
    18:00 +18°C° 0 mm 1 mps 731 mmHg 45%
    19:00 +16°C° 0 mm 1 mps 731 mmHg 51%
    20:00 +14°C° 0 mm 1 mps 731 mmHg 58%
    21:00 +14°C° 0 mm 1 mps 731 mmHg 62%
    22:00 +13°C° 0 mm 1 mps 731 mmHg 67%
    23:00 +12°C° 0 mm 1 mps 731 mmHg 72%

    28 October, Monday

    Time Temperature Precipitation Wind Pressure Humidity
    00:00 +12°C° 0 mm 1 mps 730 mmHg 74%
    01:00 +12°C° 0 mm 1 mps 730 mmHg 76%
    02:00 +11°C° 0 mm 1 mps 730 mmHg 78%
    03:00 +11°C° 0 mm 1 mps 730 mmHg 78%
    04:00 +11°C° 0 mm 1 mps 729 mmHg 79%
    05:00 +10°C° 0 mm 1 mps 729 mmHg 79%
    06:00 +11°C° 0 mm 1 mps 729 mmHg 76%
    07:00 +12°C° 0 mm 1 mps 729 mmHg 72%
    08:00 +12°C° 0 mm 1 mps 729 mmHg 69%
    09:00 +15°C° 0 mm 1 mps 729 mmHg 59%
    10:00 +18°C° 0 mm 1 mps 730 mmHg 50%
    11:00 +20°C° 0 mm 1 mps 730 mmHg 41%
    12:00 +21°C° 0 mm 1 mps 729 mmHg 37%
    13:00 +22°C° 0 mm 1 mps 729 mmHg 33%
    14:00 +23°C° 0 mm 1 mps 729 mmHg 30%
    15:00 +22°C° 0 mm 1 mps 729 mmHg 34%
    16:00 +20°C° 0 mm 1 mps 728 mmHg 37%
    17:00 +19°C° 0 mm 1 mps 728 mmHg 41%
    18:00 +16°C° 0 mm 1 mps 728 mmHg 47%
    19:00 +15°C° 0 mm 1 mps 728 mmHg 53%
    20:00 +14°C° 0 mm 1 mps 728 mmHg 59%
    21:00 +13°C° 0 mm 1 mps 728 mmHg 61%
    22:00 +13°C° 0 mm 1 mps 728 mmHg 63%
    23:00 +12°C° 0 mm 1 mps 728 mmHg 65%

    29 October, Tuesday

    Time Temperature Precipitation Wind Pressure Humidity
    00:00 +12°C° 0 mm 1 mps 728 mmHg 64%
    01:00 +12°C° 0 mm 1 mps 728 mmHg 64%
    02:00 +12°C° 0 mm 1 mps 728 mmHg 63%
    03:00 +12°C° 0 mm 1 mps 728 mmHg 61%
    04:00 +10°C° 0 mm 0 mps 728 mmHg 59%
    05:00 +10°C° 0 mm 0 mps 728 mmHg 56%
    06:00 +11°C° 0 mm 0 mps 728 mmHg 53%
    07:00 +12°C° 0 mm 0 mps 729 mmHg 50%
    08:00 +13°C° 0 mm 0 mps 729 mmHg 47%
    09:00 +16°C° 0 mm 1 mps 729 mmHg 41%
    10:00 +19°C° 0 mm 1 mps 730 mmHg 36%
    11:00 +21°C° 0 mm 1 mps 730 mmHg 30%
    12:00 +22°C° 0 mm 1 mps 730 mmHg 29%
    13:00 +23°C° 0 mm 1 mps 730 mmHg 28%
    14:00 +23°C° 0 mm 1 mps 730 mmHg 27%
    15:00 +22°C° 0 mm 1 mps 729 mmHg 30%
    16:00 +20°C° 0 mm 1 mps 729 mmHg 34%
    17:00 +19°C° 0 mm 1 mps 729 mmHg 37%
    18:00 +16°C° 0 mm 1 mps 729 mmHg 45%
    19:00 +15°C° 0 mm 1 mps 729 mmHg 53%
    20:00 +13°C° 0 mm 1 mps 729 mmHg 61%
    21:00 +13°C° 0 mm 1 mps 729 mmHg 67%
    22:00 +12°C° 0 mm 1 mps 729 mmHg 72%
    23:00 +12°C° 0 mm 1 mps 729 mmHg 78%
    Show more